TimeEDT,TemperatureF,Dew PointF,Humidity,Sea Level PressureIn,VisibilityMPH,Wind Direction,Wind SpeedMPH,Gust SpeedMPH,PrecipitationIn,Events,Conditions,WindDirDegrees,DateUTC
12:56 AM,61.0,57.0,87,30.09,10.0,Calm,Calm,-,N/A,,Clear,0,2013-08-19 04:56:00
1:56 AM,61.0,57.0,87,30.08,10.0,Calm,Calm,-,N/A,,Clear,0,2013-08-19 05:56:00
2:56 AM,60.1,55.9,86,30.08,10.0,Calm,Calm,-,N/A,,Clear,0,2013-08-19 06:56:00
3:56 AM,60.1,57.0,90,30.07,10.0,Calm,Calm,-,N/A,,Clear,0,2013-08-19 07:56:00
4:56 AM,55.9,55.0,97,30.08,9.0,Calm,Calm,-,N/A,,Clear,0,2013-08-19 08:56:00
5:56 AM,57.0,55.9,96,30.08,7.0,Calm,Calm,-,N/A,,Clear,0,2013-08-19 09:56:00
6:39 AM,60.8,57.2,88,30.09,9.0,South,3.5,-,N/A,,Partly Cloudy,190,2013-08-19 10:39:00
6:56 AM,61.0,59.0,93,30.08,8.0,South,4.6,-,N/A,,Partly Cloudy,190,2013-08-19 10:56:00
7:56 AM,66.0,63.0,90,30.07,10.0,SSW,3.5,-,N/A,,Clear,210,2013-08-19 11:56:00
8:56 AM,71.1,66.0,84,30.07,10.0,SSW,6.9,-,N/A,,Clear,210,2013-08-19 12:56:00
9:56 AM,75.0,66.0,73,30.06,10.0,SW,8.1,-,N/A,,Partly Cloudy,230,2013-08-19 13:56:00
10:56 AM,75.0,66.0,73,30.06,10.0,WSW,6.9,-,N/A,,Partly Cloudy,250,2013-08-19 14:56:00
11:56 AM,77.0,64.9,66,30.06,10.0,WSW,9.2,-,N/A,,Partly Cloudy,240,2013-08-19 15:56:00
12:56 PM,77.0,64.0,64,30.04,10.0,SW,11.5,-,N/A,,Clear,220,2013-08-19 16:56:00
1:56 PM,79.0,61.0,54,30.03,10.0,SW,11.5,-,N/A,,Clear,230,2013-08-19 17:56:00
2:56 PM,80.1,64.0,58,30.02,10.0,West,12.7,-,N/A,,Clear,260,2013-08-19 18:56:00
3:56 PM,78.1,63.0,60,30.02,10.0,West,11.5,-,N/A,,Clear,260,2013-08-19 19:56:00
4:56 PM,79.0,61.0,54,30.01,10.0,SW,10.4,-,N/A,,Clear,230,2013-08-19 20:56:00
5:56 PM,78.1,59.0,52,30.01,10.0,SW,8.1,-,N/A,,Clear,230,2013-08-19 21:56:00
6:56 PM,75.0,61.0,62,30.00,10.0,WSW,5.8,-,N/A,,Clear,250,2013-08-19 22:56:00
7:56 PM,70.0,62.1,76,30.00,10.0,SSW,4.6,-,N/A,,Clear,210,2013-08-19 23:56:00
8:56 PM,66.9,61.0,81,30.01,10.0,Calm,Calm,-,N/A,,Clear,0,2013-08-20 00:56:00
9:56 PM,66.0,62.1,87,30.01,10.0,South,4.6,-,N/A,,Clear,180,2013-08-20 01:56:00
10:56 PM,64.9,61.0,87,30.01,10.0,South,4.6,-,N/A,,Clear,170,2013-08-20 02:56:00
11:56 PM,64.9,60.1,84,30.02,10.0,South,4.6,-,N/A,,Clear,180,2013-08-20 03:56:00